Year,Month,Day,Hour,Minute,Value (Times are PST for barometer in hPa)
2019,02,14,00,00,1001.12
2019,02,14,00,01,1001.08
2019,02,14,00,02,1001.08
2019,02,14,00,03,1001.08
2019,02,14,00,04,1001.02
2019,02,14,00,05,1000.98
2019,02,14,00,06,1001.02
2019,02,14,00,07,1000.98
2019,02,14,00,08,1000.98
2019,02,14,00,09,1001.05
2019,02,14,00,10,1001.02
2019,02,14,00,11,1000.98
2019,02,14,00,12,1000.98
2019,02,14,00,13,1000.98
2019,02,14,00,14,1000.95
2019,02,14,00,15,1000.95
2019,02,14,00,16,1000.95
2019,02,14,00,17,1000.95
2019,02,14,00,18,1000.98
2019,02,14,00,19,1000.95
2019,02,14,00,20,1000.92
2019,02,14,00,21,1000.85
2019,02,14,00,22,1000.85
2019,02,14,00,23,1000.85
2019,02,14,00,24,1000.85
2019,02,14,00,25,1000.85
2019,02,14,00,26,1000.78
2019,02,14,00,27,1000.78
2019,02,14,00,28,1000.75
2019,02,14,00,29,1000.75
2019,02,14,00,30,1000.75
2019,02,14,00,31,1000.71
2019,02,14,00,32,1000.71
2019,02,14,00,33,1000.71
2019,02,14,00,34,1000.68
2019,02,14,00,35,1000.61
2019,02,14,00,36,1000.57
2019,02,14,00,37,1000.44
2019,02,14,00,38,1000.41
2019,02,14,00,39,1000.37
2019,02,14,00,40,1000.34
2019,02,14,00,41,1000.34
2019,02,14,00,42,1000.34
2019,02,14,00,43,1000.41
2019,02,14,00,44,1000.41
2019,02,14,00,45,1000.41
2019,02,14,00,46,1000.44
2019,02,14,00,47,1000.44
2019,02,14,00,48,1000.41
2019,02,14,00,49,1000.34
2019,02,14,00,50,1000.37
2019,02,14,00,51,1000.34
2019,02,14,00,52,1000.34
2019,02,14,00,53,1000.34
2019,02,14,00,54,1000.34
2019,02,14,00,55,1000.27
2019,02,14,00,56,1000.31
2019,02,14,00,57,1000.34
2019,02,14,00,58,1000.27
2019,02,14,00,59,1000.34
2019,02,14,01,00,1000.31
2019,02,14,01,01,1000.34
2019,02,14,01,02,1000.37
2019,02,14,01,03,1000.34
2019,02,14,01,04,1000.27
2019,02,14,01,05,1000.27
2019,02,14,01,06,1000.20
2019,02,14,01,07,1000.20
2019,02,14,01,08,1000.20
2019,02,14,01,09,1000.20
2019,02,14,01,10,1000.20
2019,02,14,01,11,1000.20
2019,02,14,01,12,1000.20
2019,02,14,01,13,1000.17
2019,02,14,01,14,1000.20
2019,02,14,01,15,1000.17
2019,02,14,01,16,1000.20
2019,02,14,01,17,1000.17
2019,02,14,01,18,1000.10
2019,02,14,01,19,1000.10
2019,02,14,01,20,1000.03
2019,02,14,01,21,1000.03
2019,02,14,01,22,1000.07
2019,02,14,01,23,1000.03
2019,02,14,01,24,1000.10
2019,02,14,01,25,1000.10
2019,02,14,01,26,1000.10
2019,02,14,01,27,1000.10
2019,02,14,01,28,1000.03
2019,02,14,01,29,1000.00
2019,02,14,01,30,1000.03
2019,02,14,01,31,1000.00
2019,02,14,01,32,1000.00
2019,02,14,01,33,999.97
2019,02,14,01,34,999.93
2019,02,14,01,35,999.93
2019,02,14,01,36,999.97
2019,02,14,01,37,1000.03
2019,02,14,01,38,1000.03
2019,02,14,01,39,1000.03
2019,02,14,01,40,999.97
2019,02,14,01,41,999.93
2019,02,14,01,42,999.93
2019,02,14,01,43,999.97
2019,02,14,01,44,999.93
2019,02,14,01,45,999.90
2019,02,14,01,46,999.80
2019,02,14,01,47,999.73
2019,02,14,01,48,999.70
2019,02,14,01,49,999.66
2019,02,14,01,50,999.73
2019,02,14,01,51,999.66
2019,02,14,01,52,999.63
2019,02,14,01,53,999.66
2019,02,14,01,54,999.66
2019,02,14,01,55,999.66
2019,02,14,01,56,999.66
2019,02,14,01,57,999.59
2019,02,14,01,58,999.56
2019,02,14,01,59,999.49
2019,02,14,02,00,999.53
2019,02,14,02,01,999.59
2019,02,14,02,02,999.59
2019,02,14,02,03,999.59
2019,02,14,02,04,999.56
2019,02,14,02,05,999.49
2019,02,14,02,06,999.49
2019,02,14,02,07,999.46
2019,02,14,02,08,999.49
2019,02,14,02,09,999.43
2019,02,14,02,10,999.36
2019,02,14,02,11,999.32
2019,02,14,02,12,999.29
2019,02,14,02,13,999.32
2019,02,14,02,14,999.32
2019,02,14,02,15,999.29
2019,02,14,02,16,999.36
2019,02,14,02,17,999.26
2019,02,14,02,18,999.22
2019,02,14,02,19,999.22
2019,02,14,02,20,999.22
2019,02,14,02,21,999.22
2019,02,14,02,22,999.19
2019,02,14,02,23,999.19
2019,02,14,02,24,999.26
2019,02,14,02,25,999.26
2019,02,14,02,26,999.26
2019,02,14,02,27,999.22
2019,02,14,02,28,999.19
2019,02,14,02,29,999.19
2019,02,14,02,30,999.15
2019,02,14,02,31,999.15
2019,02,14,02,32,999.12
2019,02,14,02,33,999.12
2019,02,14,02,34,999.12
2019,02,14,02,35,999.09
2019,02,14,02,36,999.09
2019,02,14,02,37,999.05
2019,02,14,02,38,999.02
2019,02,14,02,39,999.02
2019,02,14,02,40,999.02
2019,02,14,02,41,998.99
2019,02,14,02,42,998.99
2019,02,14,02,43,998.95
2019,02,14,02,44,998.92
2019,02,14,02,45,998.85
2019,02,14,02,46,998.82
2019,02,14,02,47,998.82
2019,02,14,02,48,998.75
2019,02,14,02,49,998.71
2019,02,14,02,50,998.68
2019,02,14,02,51,998.65
2019,02,14,02,52,998.61
2019,02,14,02,53,998.65
2019,02,14,02,54,998.61
2019,02,14,02,55,998.61
2019,02,14,02,56,998.61
2019,02,14,02,57,998.58
2019,02,14,02,58,998.54
2019,02,14,02,59,998.51
2019,02,14,03,00,998.48
2019,02,14,03,01,998.48
2019,02,14,03,02,998.44
2019,02,14,03,03,998.44
2019,02,14,03,04,998.41
2019,02,14,03,05,998.41
2019,02,14,03,06,998.48
2019,02,14,03,07,998.44
2019,02,14,03,08,998.48
2019,02,14,03,09,998.48
2019,02,14,03,10,998.48
2019,02,14,03,11,998.48
2019,02,14,03,12,998.48
2019,02,14,03,13,998.44
2019,02,14,03,14,998.41
2019,02,14,03,15,998.41
2019,02,14,03,16,998.38
2019,02,14,03,17,998.38
2019,02,14,03,18,998.34
2019,02,14,03,19,998.31
2019,02,14,03,20,998.24
2019,02,14,03,21,998.24
2019,02,14,03,22,998.21
2019,02,14,03,23,998.17
2019,02,14,03,24,998.17
2019,02,14,03,25,998.14
2019,02,14,03,26,998.10
2019,02,14,03,27,998.14
2019,02,14,03,28,998.10
2019,02,14,03,29,998.10
2019,02,14,03,30,998.04
2019,02,14,03,31,998.00
2019,02,14,03,32,998.00
2019,02,14,03,33,997.94
2019,02,14,03,34,998.00
2019,02,14,03,35,998.00
2019,02,14,03,36,997.94
2019,02,14,03,37,997.97
2019,02,14,03,38,997.90
2019,02,14,03,39,997.94
2019,02,14,03,40,997.94
2019,02,14,03,41,997.94
2019,02,14,03,42,997.97
2019,02,14,03,43,997.94
2019,02,14,03,44,997.90
2019,02,14,03,45,997.87
2019,02,14,03,46,997.87
2019,02,14,03,47,997.83
2019,02,14,03,48,997.77
2019,02,14,03,49,997.77
2019,02,14,03,50,997.80
2019,02,14,03,51,997.80
2019,02,14,03,52,997.80
2019,02,14,03,53,997.80
2019,02,14,03,54,997.77
2019,02,14,03,55,997.73
2019,02,14,03,56,997.73
2019,02,14,03,57,997.70
2019,02,14,03,58,997.70
2019,02,14,03,59,997.73
2019,02,14,04,00,997.66
2019,02,14,04,01,997.63
2019,02,14,04,02,997.56
2019,02,14,04,03,997.60
2019,02,14,05,04,996.61
2019,02,14,05,05,996.55
2019,02,14,05,06,996.48
2019,02,14,05,07,996.45
2019,02,14,05,08,996.45
2019,02,14,05,09,996.48
2019,02,14,05,10,996.55
2019,02,14,05,11,996.48
2019,02,14,05,12,996.48
2019,02,14,05,13,996.48
2019,02,14,05,14,996.45
2019,02,14,05,15,996.45
2019,02,14,05,16,996.41
2019,02,14,05,17,996.41
2019,02,14,05,18,996.38
2019,02,14,05,19,996.41
2019,02,14,05,20,996.38
2019,02,14,05,21,996.38
2019,02,14,05,22,996.31
2019,02,14,05,23,996.28
2019,02,14,05,24,996.31
2019,02,14,05,25,996.31
2019,02,14,05,26,996.31
2019,02,14,05,27,996.28
2019,02,14,05,28,996.28
2019,02,14,05,29,996.28
2019,02,14,05,30,996.24
2019,02,14,05,31,996.24
2019,02,14,05,32,996.28
2019,02,14,05,33,996.31
2019,02,14,05,34,996.28
2019,02,14,05,35,996.31
2019,02,14,05,36,996.31
2019,02,14,05,37,996.28
2019,02,14,05,38,996.28
2019,02,14,05,39,996.24
2019,02,14,05,40,996.28
2019,02,14,05,41,996.21
2019,02,14,05,42,996.21
2019,02,14,05,43,996.17
2019,02,14,05,44,996.17
2019,02,14,05,45,996.14
2019,02,14,05,46,996.17
2019,02,14,05,47,996.17
2019,02,14,05,48,996.17
2019,02,14,05,49,996.16
2019,02,14,05,50,996.07
2019,02,14,05,51,996.11
2019,02,14,05,52,996.04
2019,02,14,05,53,995.97
2019,02,14,05,54,995.94
2019,02,14,05,55,995.94
2019,02,14,05,56,995.87
2019,02,14,05,57,995.87
2019,02,14,05,58,995.87
2019,02,14,05,59,995.84
2019,02,14,06,00,995.80
2019,02,14,06,01,995.77
2019,02,14,06,02,995.73
2019,02,14,06,03,995.67
2019,02,14,06,04,995.63
2019,02,14,06,05,995.56
2019,02,14,06,06,995.53
2019,02,14,06,07,995.53
2019,02,14,06,08,995.50
2019,02,14,06,09,995.53
2019,02,14,06,10,995.53
2019,02,14,06,11,995.50
2019,02,14,06,12,995.46
2019,02,14,06,13,995.40
2019,02,14,06,14,995.43
2019,02,14,06,15,995.46
2019,02,14,06,16,995.40
2019,02,14,06,17,995.43
2019,02,14,06,18,995.36
2019,02,14,06,19,995.33
2019,02,14,06,20,995.26
2019,02,14,06,21,995.26
2019,02,14,06,22,995.29
2019,02,14,06,23,995.23
2019,02,14,06,24,995.26
2019,02,14,06,25,995.19
2019,02,14,06,26,995.19
2019,02,14,06,27,995.16
2019,02,14,06,28,995.12
2019,02,14,06,29,995.12
2019,02,14,06,30,995.09
2019,02,14,06,31,995.09
2019,02,14,06,32,995.06
2019,02,14,06,33,995.06
2019,02,14,06,34,995.02
2019,02,14,06,35,995.02
2019,02,14,06,36,995.02
2019,02,14,06,37,994.96
2019,02,14,06,38,994.92
2019,02,14,06,39,994.89
2019,02,14,06,40,994.85
2019,02,14,06,41,994.85
2019,02,14,06,42,994.79
2019,02,14,06,43,994.79
2019,02,14,06,44,994.79
2019,02,14,06,45,994.72
2019,02,14,06,46,994.75
2019,02,14,06,47,994.72
2019,02,14,06,48,994.68
2019,02,14,06,49,994.65
2019,02,14,06,50,994.58
2019,02,14,06,51,994.52
2019,02,14,06,52,994.45
2019,02,14,06,53,994.48
2019,02,14,06,54,994.45
2019,02,14,06,55,994.38
2019,02,14,06,56,994.35
2019,02,14,06,57,994.31
2019,02,14,06,58,994.35
2019,02,14,06,59,994.38
2019,02,14,07,00,994.41
2019,02,14,07,01,994.41
2019,02,14,07,02,994.48
2019,02,14,07,03,994.45
2019,02,14,07,04,994.41
2019,02,14,07,05,994.31
2019,02,14,07,06,994.31
2019,02,14,07,07,994.28
2019,02,14,07,08,994.28
2019,02,14,07,09,994.18
2019,02,14,07,10,994.18
2019,02,14,07,11,994.18
2019,02,14,07,12,994.11
2019,02,14,07,13,994.07
2019,02,14,07,14,994.04
2019,02,14,07,15,994.04
2019,02,14,07,16,994.01
2019,02,14,07,17,994.04
2019,02,14,07,18,993.97
2019,02,14,07,19,994.04
2019,02,14,07,20,994.01
2019,02,14,07,21,993.94
2019,02,14,07,22,993.91
2019,02,14,07,23,993.87
2019,02,14,07,24,993.90
2019,02,14,07,25,993.77
2019,02,14,07,26,993.84
2019,02,14,07,27,993.80
2019,02,14,07,28,993.84
2019,02,14,07,29,993.80
2019,02,14,07,30,993.84
2019,02,14,07,31,993.74
2019,02,14,07,32,993.77
2019,02,14,07,33,993.67
2019,02,14,07,34,993.63
2019,02,14,07,35,993.60
2019,02,14,07,36,993.57
2019,02,14,07,37,993.57
2019,02,14,07,38,993.57
2019,02,14,07,39,993.57
2019,02,14,07,40,993.57
2019,02,14,07,41,993.57
2019,02,14,07,42,993.60
2019,02,14,07,43,993.57
2019,02,14,07,44,993.53
2019,02,14,07,45,993.50
2019,02,14,07,46,993.50
2019,02,14,07,47,993.47
2019,02,14,07,48,993.40
2019,02,14,07,49,993.47
2019,02,14,07,50,993.40
2019,02,14,07,51,993.40
2019,02,14,07,52,993.30
2019,02,14,07,53,993.33
2019,02,14,07,54,993.23
2019,02,14,07,55,993.26
2019,02,14,07,56,993.23
2019,02,14,07,57,993.16
2019,02,14,07,58,993.19
2019,02,14,07,59,993.16
2019,02,14,08,00,993.13
2019,02,14,08,01,993.09
2019,02,14,08,02,993.03
2019,02,14,08,03,993.06
2019,02,14,08,04,993.03
2019,02,14,08,05,992.96
2019,02,14,08,06,992.96
2019,02,14,08,07,992.92
2019,02,14,08,08,992.89
2019,02,14,08,09,992.92
2019,02,14,08,10,992.99
2019,02,14,08,11,992.99
2019,02,14,08,12,992.96
2019,02,14,08,13,992.99
2019,02,14,08,14,993.03
2019,02,14,08,15,993.03
2019,02,14,08,16,992.99
2019,02,14,08,17,993.03
2019,02,14,08,18,992.96
2019,02,14,08,19,992.92
2019,02,14,08,20,992.92
2019,02,14,08,21,992.89
2019,02,14,08,22,992.86
2019,02,14,08,23,992.83
2019,02,14,08,24,992.96
2019,02,14,08,25,992.92
2019,02,14,08,26,992.89
2019,02,14,08,27,992.92
2019,02,14,08,28,992.89
2019,02,14,08,29,992.92
2019,02,14,08,30,992.89
2019,02,14,08,31,992.96
2019,02,14,08,32,992.92
2019,02,14,08,33,992.89
2019,02,14,08,34,992.82
2019,02,14,08,35,992.79
2019,02,14,08,36,992.75
2019,02,14,08,37,992.72
2019,02,14,08,38,992.78
2019,02,14,08,39,992.65
2019,02,14,08,40,992.69
2019,02,14,08,41,992.65
2019,02,14,08,42,992.69
2019,02,14,08,43,992.65
2019,02,14,08,44,992.62
2019,02,14,08,45,992.65
2019,02,14,08,46,992.65
2019,02,14,08,47,992.62
2019,02,14,08,48,992.62
2019,02,14,08,49,992.69
2019,02,14,08,50,992.65
2019,02,14,08,51,992.69
2019,02,14,08,52,992.65
2019,02,14,08,53,992.62
2019,02,14,08,54,992.62
2019,02,14,08,55,992.58
2019,02,14,08,56,992.52
2019,02,14,08,57,992.55
2019,02,14,08,58,992.48
2019,02,14,08,59,992.52
2019,02,14,09,00,992.48
2019,02,14,09,01,992.38
2019,02,14,09,02,992.42
2019,02,14,09,03,992.38
2019,02,14,09,04,992.42
2019,02,14,09,05,992.42
2019,02,14,09,06,992.38
2019,02,14,09,07,992.45
2019,02,14,09,08,992.42
2019,02,14,09,09,992.42
2019,02,14,09,10,992.38
2019,02,14,09,11,992.35
2019,02,14,09,12,992.42
2019,02,14,09,13,992.35
2019,02,14,09,14,992.31
2019,02,14,09,15,992.28
2019,02,14,09,16,992.21
2019,02,14,09,17,992.25
2019,02,14,09,18,992.28
2019,02,14,09,19,992.28
2019,02,14,09,20,992.21
2019,02,14,09,21,992.21
2019,02,14,09,22,992.18
2019,02,14,09,23,992.14
2019,02,14,09,24,992.18
2019,02,14,09,25,992.11
2019,02,14,09,26,992.11
2019,02,14,09,27,992.14
2019,02,14,09,28,992.18
2019,02,14,09,29,992.18
2019,02,14,09,30,992.11
2019,02,14,09,31,992.08
2019,02,14,09,32,992.08
2019,02,14,09,33,992.01
2019,02,14,09,34,991.98
2019,02,14,09,35,991.94
2019,02,14,09,36,991.87
2019,02,14,09,37,991.87
2019,02,14,09,38,991.87
2019,02,14,09,39,991.81
2019,02,14,09,40,991.91
2019,02,14,09,41,991.77
2019,02,14,09,42,991.84
2019,02,14,09,43,991.77
2019,02,14,09,44,991.84
2019,02,14,09,45,991.84
2019,02,14,09,46,991.77
2019,02,14,09,47,991.77
2019,02,14,09,48,991.81
2019,02,14,09,49,991.77
2019,02,14,09,50,991.67
2019,02,14,09,51,991.74
2019,02,14,09,52,991.77
2019,02,14,09,53,991.77
2019,02,14,09,54,991.81
2019,02,14,09,55,991.81
2019,02,14,09,56,991.81
2019,02,14,09,57,991.84
2019,02,14,09,58,991.81
2019,02,14,09,59,991.84
2019,02,14,10,00,991.81
2019,02,14,10,01,991.77
2019,02,14,10,02,991.74
2019,02,14,10,03,991.67
2019,02,14,10,04,991.74
2019,02,14,10,05,991.70
2019,02,14,10,06,991.70
2019,02,14,10,07,991.67
2019,02,14,10,08,991.67
2019,02,14,10,09,991.70
2019,02,14,10,10,991.67
2019,02,14,10,11,991.67
2019,02,14,10,12,991.64
2019,02,14,10,13,991.60
2019,02,14,10,14,991.60
2019,02,14,10,15,991.60
2019,02,14,10,16,991.50
2019,02,14,10,17,991.53
2019,02,14,10,18,991.60
2019,02,14,10,19,991.57
2019,02,14,10,20,991.53
2019,02,14,10,21,991.40
2019,02,14,10,22,991.47
2019,02,14,10,23,991.50
2019,02,14,10,24,991.50
2019,02,14,10,25,991.47
2019,02,14,10,26,991.43
2019,02,14,10,27,991.43
2019,02,14,10,28,991.53
2019,02,14,10,29,991.53
2019,02,14,10,30,991.33
2019,02,14,10,31,991.37
2019,02,14,10,32,991.30
2019,02,14,10,33,991.33
2019,02,14,10,34,991.26
2019,02,14,10,35,991.26
2019,02,14,10,36,991.23
2019,02,14,10,37,991.26
2019,02,14,10,38,991.20
2019,02,14,10,39,991.16
2019,02,14,10,40,991.16
2019,02,14,10,41,991.13
2019,02,14,10,42,991.06
2019,02,14,10,43,991.06
2019,02,14,10,44,991.03
2019,02,14,10,45,990.99
2019,02,14,10,46,991.06
2019,02,14,10,47,991.06
2019,02,14,10,48,991.06
2019,02,14,10,49,991.09
2019,02,14,10,50,991.09
2019,02,14,10,51,991.09
2019,02,14,10,52,991.06
2019,02,14,10,53,991.13
2019,02,14,10,54,991.06
2019,02,14,10,55,991.06
2019,02,14,10,56,991.06
2019,02,14,10,57,990.96
2019,02,14,10,58,990.99
2019,02,14,10,59,991.03
2019,02,14,11,00,991.06
2019,02,14,11,01,991.06
2019,02,14,11,02,991.06
2019,02,14,11,03,991.09
2019,02,14,11,04,991.03
2019,02,14,11,05,991.06
2019,02,14,11,06,991.13
2019,02,14,11,07,991.03
2019,02,14,11,08,991.03
2019,02,14,11,09,991.03
2019,02,14,11,10,990.99
2019,02,14,11,11,990.93
2019,02,14,11,12,990.93
2019,02,14,11,13,990.89
2019,02,14,11,14,990.86
2019,02,14,11,15,990.89
2019,02,14,11,16,990.89
2019,02,14,11,17,990.86
2019,02,14,11,18,990.89
2019,02,14,11,19,990.82
2019,02,14,11,20,990.86
2019,02,14,11,21,990.89
2019,02,14,11,22,990.82
2019,02,14,11,23,990.79
2019,02,14,11,24,990.76
2019,02,14,11,25,990.72
2019,02,14,11,26,990.69
2019,02,14,11,27,990.69
2019,02,14,11,28,990.65
2019,02,14,11,29,990.62
2019,02,14,11,30,990.62
2019,02,14,11,31,990.59
2019,02,14,11,32,990.69
2019,02,14,11,33,990.62
2019,02,14,11,34,990.59
2019,02,14,11,35,990.59
2019,02,14,11,36,990.59
2019,02,14,11,37,990.59
2019,02,14,11,38,990.65
2019,02,14,11,39,990.59
2019,02,14,11,40,990.62
2019,02,14,11,41,990.65
2019,02,14,11,42,990.55
2019,02,14,11,43,990.55
2019,02,14,11,44,990.49
2019,02,14,11,45,990.59
2019,02,14,11,46,990.45
2019,02,14,11,47,990.45
2019,02,14,11,48,990.45
2019,02,14,11,49,990.35
2019,02,14,11,50,990.35
2019,02,14,11,51,990.42
2019,02,14,11,52,990.42
2019,02,14,11,53,990.35
2019,02,14,11,54,990.32
2019,02,14,11,55,990.28
2019,02,14,11,56,990.25
2019,02,14,11,57,990.28
2019,02,14,11,58,990.18
2019,02,14,11,59,990.15
2019,02,14,12,00,990.08
2019,02,14,12,01,990.08
2019,02,14,12,02,990.04
2019,02,14,12,03,990.01
2019,02,14,12,04,990.01
2019,02,14,12,05,989.98
2019,02,14,12,06,989.98
2019,02,14,12,07,989.88
2019,02,14,12,08,989.81
2019,02,14,12,09,989.74
2019,02,14,12,10,989.84
2019,02,14,12,11,989.77
2019,02,14,12,12,989.77
2019,02,14,12,13,989.77
2019,02,14,12,14,989.74
2019,02,14,12,15,989.74
2019,02,14,12,16,989.71
2019,02,14,12,17,989.77
2019,02,14,12,18,989.64
2019,02,14,12,19,989.74
2019,02,14,12,20,989.74
2019,02,14,12,21,989.77
2019,02,14,12,22,989.60
2019,02,14,12,23,989.54
2019,02,14,12,24,989.57
2019,02,14,12,25,989.57
2019,02,14,12,26,989.54
2019,02,14,12,27,989.44
2019,02,14,12,28,989.44
2019,02,14,12,29,989.33
2019,02,14,12,30,989.40
2019,02,14,12,31,989.33
2019,02,14,12,32,989.27
2019,02,14,12,33,989.27
2019,02,14,12,34,989.23
2019,02,14,12,35,989.23
2019,02,14,12,36,989.20
2019,02,14,12,37,989.20
2019,02,14,12,38,989.13
2019,02,14,12,39,989.10
2019,02,14,12,40,989.10
2019,02,14,12,41,989.10
2019,02,14,12,42,989.10
2019,02,14,12,43,989.06
2019,02,14,12,44,989.10
2019,02,14,12,45,989.03
2019,02,14,12,46,989.06
2019,02,14,12,47,989.00
2019,02,14,12,48,988.96
2019,02,14,12,49,988.86
2019,02,14,12,50,988.79
2019,02,14,12,51,988.83
2019,02,14,12,52,988.76
2019,02,14,12,53,988.79
2019,02,14,12,54,988.72
2019,02,14,12,55,988.69
2019,02,14,12,56,988.66
2019,02,14,12,57,988.66
2019,02,14,12,58,988.66
2019,02,14,12,59,988.72
2019,02,14,13,00,988.76
2019,02,14,13,01,988.76
2019,02,14,13,02,988.66
2019,02,14,13,03,988.66
2019,02,14,13,04,988.66
2019,02,14,13,05,988.55
2019,02,14,13,06,988.52
2019,02,14,13,07,988.49
2019,02,14,13,08,988.45
2019,02,14,13,09,988.45
2019,02,14,13,10,988.49
2019,02,14,13,11,988.52
2019,02,14,13,12,988.39
2019,02,14,13,13,988.35
2019,02,14,13,14,988.35
2019,02,14,13,15,988.39
2019,02,14,13,16,988.39
2019,02,14,13,17,988.39
2019,02,14,13,18,988.32
2019,02,14,13,19,988.22
2019,02,14,13,20,988.18
2019,02,14,13,21,988.22
2019,02,14,13,22,988.11
2019,02,14,13,23,988.11
2019,02,14,13,24,988.11
2019,02,14,13,25,988.11
2019,02,14,13,26,988.08
2019,02,14,13,27,988.11
2019,02,14,13,28,988.11
2019,02,14,13,29,988.11
2019,02,14,13,30,988.05
2019,02,14,13,31,988.05
2019,02,14,13,32,988.05
2019,02,14,13,33,987.95
2019,02,14,13,34,987.98
2019,02,14,13,35,987.91
2019,02,14,13,36,987.91
2019,02,14,13,37,987.98
2019,02,14,13,38,987.95
2019,02,14,13,39,987.95
2019,02,14,13,40,987.98
2019,02,14,13,41,987.91
2019,02,14,13,42,987.88
2019,02,14,13,43,987.91
2019,02,14,13,44,987.82
2019,02,14,13,45,987.84
2019,02,14,13,46,987.81
2019,02,14,13,47,987.81
2019,02,14,13,48,987.81
2019,02,14,13,49,987.81
2019,02,14,13,50,987.81
2019,02,14,13,51,987.74
2019,02,14,13,52,987.74
2019,02,14,13,53,987.67
2019,02,14,13,54,987.71
2019,02,14,13,55,987.67
2019,02,14,13,56,987.71
2019,02,14,13,57,987.71
2019,02,14,13,58,987.71
2019,02,14,13,59,987.67
2019,02,14,14,00,987.67
2019,02,14,14,01,987.67
2019,02,14,14,02,987.64
2019,02,14,14,03,987.61
2019,02,14,14,04,987.61
2019,02,14,14,05,987.64
2019,02,14,14,06,987.61
2019,02,14,14,07,987.57
2019,02,14,14,08,987.67
2019,02,14,14,09,987.57
2019,02,14,14,10,987.57
2019,02,14,14,11,987.54
2019,02,14,14,12,987.51
2019,02,14,14,13,987.51
2019,02,14,14,14,987.47
2019,02,14,14,15,987.47
2019,02,14,14,16,987.44
2019,02,14,14,17,987.47
2019,02,14,14,18,987.40
2019,02,14,14,19,987.44
2019,02,14,14,20,987.34
2019,02,14,14,21,987.34
2019,02,14,14,22,987.37
2019,02,14,14,23,987.27
2019,02,14,14,24,987.34
2019,02,14,14,25,987.27
2019,02,14,14,26,987.17
2019,02,14,14,27,987.30
2019,02,14,14,28,987.30
2019,02,14,14,29,987.34
2019,02,14,14,30,987.27
2019,02,14,14,31,987.30
2019,02,14,14,32,987.30
2019,02,14,14,33,987.23
2019,02,14,14,34,987.23
2019,02,14,14,35,987.23
2019,02,14,14,36,987.30
2019,02,14,14,37,987.27
2019,02,14,14,38,987.27
2019,02,14,14,39,987.20
2019,02,14,14,40,987.20
2019,02,14,14,41,987.17
2019,02,14,14,42,987.13
2019,02,14,14,43,987.10
2019,02,14,14,44,987.13
2019,02,14,14,45,987.13
2019,02,14,14,46,987.06
2019,02,14,14,47,987.10
2019,02,14,14,48,987.13
2019,02,14,14,49,987.06
2019,02,14,14,50,987.13
2019,02,14,14,51,987.06
2019,02,14,14,52,987.03
2019,02,14,14,53,987.06
2019,02,14,14,54,987.06
2019,02,14,14,55,987.06
2019,02,14,14,56,987.00
2019,02,14,14,57,987.03
2019,02,14,14,58,987.06
2019,02,14,14,59,987.06
2019,02,14,15,00,987.00
2019,02,14,15,01,987.06
2019,02,14,15,02,987.03
2019,02,14,15,03,987.06
2019,02,14,15,04,987.06
2019,02,14,15,05,987.10
2019,02,14,15,06,987.13
2019,02,14,15,07,987.10
2019,02,14,15,08,987.10
2019,02,14,15,09,987.06
2019,02,14,15,10,987.10
2019,02,14,15,11,987.06
2019,02,14,15,12,987.13
2019,02,14,15,13,987.06
2019,02,14,15,14,987.13
2019,02,14,15,15,987.13
2019,02,14,15,16,987.13
2019,02,14,15,17,987.20
2019,02,14,15,18,987.17
2019,02,14,15,19,987.13
2019,02,14,15,20,987.20
2019,02,14,15,21,987.13
2019,02,14,15,22,987.13
2019,02,14,15,23,987.17
2019,02,14,15,24,987.13
2019,02,14,15,25,987.26
2019,02,14,15,26,987.34
2019,02,14,15,27,987.34
2019,02,14,15,28,987.44
2019,02,14,15,29,987.40
2019,02,14,15,30,987.40
2019,02,14,15,31,987.51
2019,02,14,15,32,987.47
2019,02,14,15,33,987.47
2019,02,14,15,34,987.47
2019,02,14,15,35,987.40
2019,02,14,15,36,987.51
2019,02,14,15,37,987.44
2019,02,14,15,38,987.44
2019,02,14,15,39,987.47
2019,02,14,15,40,987.47
2019,02,14,15,41,987.47
2019,02,14,15,42,987.57
2019,02,14,15,43,987.51
2019,02,14,15,44,987.51
2019,02,14,15,45,987.47
2019,02,14,15,46,987.47
2019,02,14,15,47,987.54
2019,02,14,15,48,987.51
2019,02,14,15,49,987.54
2019,02,14,15,50,987.51
2019,02,14,15,51,987.51
2019,02,14,15,52,987.57
2019,02,14,15,53,987.54
2019,02,14,15,54,987.54
2019,02,14,15,55,987.57
2019,02,14,15,56,987.57
2019,02,14,15,57,987.54
2019,02,14,15,58,987.61
2019,02,14,15,59,987.61
2019,02,14,16,00,987.64
2019,02,14,16,01,987.64
2019,02,14,16,02,987.61
2019,02,14,16,03,987.64
2019,02,14,16,04,987.64
2019,02,14,16,05,987.67
2019,02,14,16,06,987.64
2019,02,14,16,07,987.64
2019,02,14,16,08,987.61
2019,02,14,16,09,987.61
2019,02,14,16,10,987.61
2019,02,14,16,11,987.64
2019,02,14,16,12,987.64
2019,02,14,16,13,987.67
2019,02,14,16,14,987.64
2019,02,14,16,15,987.64
2019,02,14,16,16,987.67
2019,02,14,16,17,987.71
2019,02,14,16,18,987.64
2019,02,14,16,19,987.64
2019,02,14,16,20,987.61
2019,02,14,16,21,987.61
2019,02,14,16,22,987.61
2019,02,14,16,23,987.61
2019,02,14,16,24,987.54
2019,02,14,16,25,987.54
2019,02,14,16,26,987.61
2019,02,14,16,27,987.61
2019,02,14,16,28,987.61
2019,02,14,16,29,987.61
2019,02,14,16,30,987.61
2019,02,14,16,31,987.61
2019,02,14,16,32,987.61
2019,02,14,16,33,987.64
2019,02,14,16,34,987.64
2019,02,14,16,35,987.67
2019,02,14,16,36,987.67
2019,02,14,16,37,987.67
2019,02,14,16,38,987.71
2019,02,14,16,39,987.71
2019,02,14,16,40,987.78
2019,02,14,16,41,987.78
2019,02,14,16,42,987.81
2019,02,14,16,43,987.84
2019,02,14,16,44,987.88
2019,02,14,16,45,987.91
2019,02,14,16,46,987.91
2019,02,14,16,47,987.95
2019,02,14,16,48,987.95
2019,02,14,16,49,987.95
2019,02,14,16,50,988.01
2019,02,14,16,51,988.01
2019,02,14,16,52,988.01
2019,02,14,16,53,987.98
2019,02,14,16,54,987.98
2019,02,14,16,55,988.05
2019,02,14,16,56,988.05
2019,02,14,16,57,988.08
2019,02,14,16,58,988.11
2019,02,14,16,59,988.11
2019,02,14,17,00,988.11
2019,02,14,17,01,988.11
2019,02,14,17,02,988.11
2019,02,14,17,03,988.11
2019,02,14,17,04,988.08
2019,02,14,17,05,988.05
2019,02,14,17,06,988.05
2019,02,14,17,07,988.05
2019,02,14,17,08,988.05
2019,02,14,17,09,988.01
2019,02,14,17,10,988.01
2019,02,14,17,11,987.98
2019,02,14,17,12,987.95
2019,02,14,17,13,987.91
2019,02,14,17,14,987.95
2019,02,14,17,15,987.98
2019,02,14,17,16,987.98
2019,02,14,17,17,988.05
2019,02,14,17,18,988.11
2019,02,14,17,19,988.11
2019,02,14,17,20,988.11
2019,02,14,17,21,988.11
2019,02,14,17,22,988.11
2019,02,14,17,23,988.11
2019,02,14,17,24,988.15
2019,02,14,17,25,988.18
2019,02,14,17,26,988.15
2019,02,14,17,27,988.18
2019,02,14,17,28,988.18
2019,02,14,17,29,988.25
2019,02,14,17,30,988.18
2019,02,14,17,31,988.22
2019,02,14,17,32,988.18